• MPC Preparation (Info)

  • MPEC 2014-G46 : 2014 GE35

    The following Minor Planet Electronic Circular may be linked-to from your own Web pages, but must not otherwise be redistributed electronically.

    A form allowing access to any MPEC is at the bottom of this page.


    Read MPEC 2014-G45 Read MPEC 2014-G47


    M.P.E.C. 2014-G46                                Issued 2014 Apr. 8, 16:33 UT
    
         The Minor Planet Electronic Circulars contain information on unusual
             minor planets and routine data on comets.  They are published
       on behalf of Commission 20 of the International Astronomical Union by the
              Minor Planet Center, Smithsonian Astrophysical Observatory,
                              Cambridge, MA 02138, U.S.A.
    
                 Prepared using the Tamkin Foundation Computer Network
    
                                  MPC@CFA.HARVARD.EDU
                URL https://www.minorplanetcenter.net/    ISSN 1523-6714
    
                                       2014 GE35
    
    Observations:
         K14G35E* C2014 04 05.34341 10 28 15.543-28 14 30.20         20.2 iLEG046F51
         K14G35E  C2014 04 05.35177 10 28 16.405-28 14 04.52         20.3 iLEG046F51
         K14G35E  C2014 04 05.36849 10 28 18.154-28 13 13.63         20.2 iLEG046F51
         K14G35E |C2014 04 05.99855 10 29 29.96 -27 41 12.7          20.5 VuEG046807
         K14G35E |C2014 04 06.00410 10 29 30.58 -27 40 56.4          20.5 VuEG046807
         K14G35E |C2014 04 06.00965 10 29 31.18 -27 40 39.9          20.7 VuEG046807
         K14G35E  C2014 04 06.22513 10 29 54.50 -27 30 11.5          20.1 RoEG046926
         K14G35E  C2014 04 06.23515 10 29 55.58 -27 29 41.1          20.5 RoEG046926
         K14G35E  C2014 04 06.24520 10 29 56.63 -27 29 10.8          19.9 RoEG046926
         K14G35E |C2014 04 07.05661 10 31 27.24 -26 48 52.5          20.6 VuEG046807
         K14G35E |C2014 04 07.06217 10 31 27.82 -26 48 36.1          20.4 VuEG046807
         K14G35E |C2014 04 07.06773 10 31 28.40 -26 48 19.8          20.8 VuEG046807
         K14G35E KC2014 04 08.00567610 33 10.27 -26 02 53.7          20.6 VqEG046K93
         K14G35E KC2014 04 08.00978710 33 10.71 -26 02 41.9          20.5 VqEG046K93
         K14G35E KC2014 04 08.01399110 33 11.14 -26 02 29.8          20.7 VqEG046K93
         K14G35E KC2014 04 08.01725610 33 11.48 -26 02 20.1          21.0 VqEG046K93
         K14G35E  C2014 04 08.13255410 33 25.47 -25 57 10.0          20.6 RtEG046H01
         K14G35E  C2014 04 08.13590710 33 25.81 -25 57 00.3          20.1 RtEG046H01
         K14G35E  C2014 04 08.14816210 33 27.08 -25 56 25.4          20.0 RtEG046H01
         K14G35E  C2014 04 08.15626510 33 27.90 -25 56 02.3          20.1 RtEG046H01
    
    Observer details:
    807 Cerro Tololo.  Observers T. Linder, R. Holmes.  Measurers T. Linder,
        R. Holmes, K. Baker.  0.41-m f/11 Ritchey-Chretien + CCD.
    926 Tenagra II Observatory.  Observers M. Schwartz, P. R. Holvorcem.  0.81-m
        f/7 Ritchey-Chretien + CCD.
    F51 Pan-STARRS 1, Haleakala.  Observers N. Primak, A. Schultz, T. Goggia,
        M. Willman.  Measurer PS1 Science Consortium.  1.8-m Ritchey-Chretien
        + CCD.
    H01 Magdalena Ridge Observatory, Socorro.  Observer W. H. Ryan.  2.4-m f/8.9
        reflector + CCD.
    K93 Sutherland-LCOGT C.  Observer T. Lister.  1.0-m f/8 Ritchey-Chretien + CCD.
    
    Orbital elements:
    2014 GE35                                           PHA, Earth MOID = 0.0405 AU
    Epoch 2014 May 23.0 TT = JDT 2456800.5                  MPC
    M  51.28637              (2000.0)            P               Q
    n   0.37325534     Peri.  232.24349     -0.06671220     -0.97145251
    a   1.9104339      Node   223.34770     +0.98756439     -0.03173347
    e   0.5254712      Incl.   19.36970     +0.14235892     -0.23510211
    P   2.64           H   20.1           G   0.15           U   8
    Residuals in seconds of arc
    140405 F51  0.1+  0.1-    140406 926  0.3+  0.1+    140408 K93  0.1-  0.1-
    140405 F51  0.1-  0.1+    140406 926  0.3+  0.3+    140408 K93  0.2-  0.1+
    140405 F51  0.1-  0.0     140407 807  0.2-  0.1-    140408 H01  0.1+  0.1-
    140405 807  0.2-  0.1+    140407 807  0.1-  0.0     140408 H01  0.0   0.1+
    140406 807  0.2+  0.1-    140407 807  0.1-  0.1+    140408 H01  0.2+  0.0
    140406 807  0.4+  0.2-    140408 K93  0.0   0.1+    140408 H01  0.0   0.0
    140406 926  0.1-  0.3-    140408 K93  0.1+  0.0
    
    Ephemeris:
    2014 GE35                a,e,i = 1.91, 0.53, 19                  q = 0.9066
    Date    TT    R. A. (2000) Decl.     Delta      r     Elong.  Phase     V
    2014 03 09    09 16 34.8 -55 10 45   0.3612  1.1923   115.2    48.9    20.1
    ...
    2014 03 24    10 02 21.4 -39 50 43   0.4096  1.3049   131.5    34.9    20.2
    ...
    2014 04 01    10 19 48.7 -32 04 31   0.4536  1.3663   137.0    29.9    20.4
    ...
    2014 04 07    10 31 20.7 -26 51 42   0.4958  1.4124   138.8    27.8    20.6
    2014 04 08    10 33 10.5 -26 03 18   0.5036  1.4201   139.0    27.6    20.6
    2014 04 09    10 34 59.1 -25 16 00   0.5116  1.4277   139.0    27.4    20.6
    ...
    2014 04 15    10 45 26.8 -20 56 10   0.5642  1.4737   138.5    26.8    20.9
    ...
    2014 04 23    10 58 36.5 -16 12 17   0.6453  1.5344   135.6    27.3    21.3
    ...
    2014 05 08    11 21 59.7 -10 08 24   0.8276  1.6460   127.0    29.3    22.1
    
    A. U. Tomatic                (C) Copyright 2014 MPC           M.P.E.C. 2014-G46
    

    Read MPEC 2014-G45 Read MPEC 2014-G47


    MPEC number:

    Enter an MPEC number in one of the following forms:

    • 1997-B01 (the full form)
    • J97B01 (the packed version of the full form)
    • B01 (the abbreviated form)